Location: �mondeville
(49.4591°N, 1.3431°W)
Time: 02:07:25
(UTC+00:00)

Cosmos 1626 Rocket - Pass Details

Date: 22 October 2019
Orbit: 604 x 630 km, 82.5° (Epoch: 18 November)

Event Time Altitude Azimuth Distance (km) Brightness Sun altitude
Rises 05:15:28 0° 179° (S) 2,846 7.0 -13.9°
Reaches altitude 10° 05:17:40 10° 177° (S) 1,948 6.2 -13.5°
Maximum altitude 05:21:56 63° 96° (E) 679 4.0 -12.8°
Drops below altitude 10° 05:26:14 10° 16° (NNE) 1,971 6.3 -12.1°
Sets 05:28:29 0° 13° (NNE) 2,883 7.1 -11.8°
